Weather Service Report


144 
ASUS44 KEWX 310910
RWRTX 
SOUTH TEXAS REGIONAL WEATHER ROUNDUP
NATIONAL WEATHER SERVICE AUSTIN/SAN ANTONIO TX
400 AM CDT SUN JUL 31 2016

NOTE: "FAIR" INDICATED FEW OR NO CLOUDS BELOW 12,000 FEET WITH NO
SIGNIFICANT WEATHER AND/OR OBSTRUCTIONS TO VISIBILITY.

* - THESE STATIONS ARE NOT NWS OR FAA STATIONS...AND ARE NOT SUBJECT
    TO NWS AND FAA QUALITY CONTROL.
 
TXZ171-172-183>190-311000-
TEXAS HILL COUNTRY AND EDWARDS PLATEAU
  
CITY           SKY/WX    TMP DP  RH WIND       PRES   REMARKS
JUNCTION       CLEAR     79  70  74 S8        30.01S                  
*LLANO         CLEAR     81  73  78 CALM      30.03S                  
BURNET         CLEAR     78  70  76 S8        30.02F                  
*HORSESHOE BAY CLEAR     77  71  81 S8        30.00S                  
*KERRVILLE     PTCLDY    76  73  88 SE10      30.03F                  
*FREDERICKSBRG CLEAR     74  67  79 S6        30.03F                  
*ROCKSPRINGS   CLEAR     75  70  83 S12       30.06F                  
*BOERNE STAGE  CLOUDY    73  70  88 S7        30.04S                  
*CASTROVILLE   CLOUDY    77  74  90 SE5       30.01S                  
HONDO          PTCLDY    76  73  91 SE7       30.01S                  
*UVALDE        PTCLDY    76  72  85 E3        29.99S                  
DEL RIO        CLEAR     82  71  69 SE7       29.94S                  
LAUGHLIN AFB   CLEAR     81  72  72 SE10      29.95S                  
CARRIZO SPRGS  PTCLDY    81  70  69 SE7       29.94S                  
*EAGLE PASS    SUNNY     81  70  69 SE6       29.95S                  
$$

TXZ173-191>194-202-209-217>225-228-311000-
CENTRAL AND SOUTH CENTRAL TEXAS
  
CITY           SKY/WX    TMP DP  RH WIND       PRES   REMARKS
GEORGETOWN     CLEAR     79  72  78 S10       29.98F                  
AUSTIN/BERGSTM MOCLDY    77  76  96 S7        29.99F                  
AUSTIN/MABRY   MOCLDY    79  75  87 VRB5      30.00F                  
*AUSTIN/EXEC     N/A     75  75 100 S8        29.99F                  
*LAGO VISTA    CLEAR     78  73  85 S6        30.01F                  
SAN MARCOS     CLOUDY    77  75  94 S6        30.02F                  
NEW BRAUNFELS  MOCLDY    77  75  93 S6        29.99S                  
RANDOLPH AFB   CLOUDY    77  77 100 S8        30.00S                  
PT SAN ANTONIO MOCLDY    77  74  90 SE9       29.98F                  
SAN ANTONIO    MOCLDY    79  74  84 S14       30.00F                  
STINSON FIELD  MOCLDY    78  74  87 SE6       29.97F                  
*PLEASANTON    CLEAR     77  74  88 SE6       29.98F                  
*LA GRANGE       N/A    N/A N/A N/A S3        29.98S                  
*GIDDINGS      CLEAR     76  74  94 CALM      30.03S                  
*GONZALES      CLOUDY    77  77 100 SE3       29.99S                  
$$

TXZ163>164-176>182-195>201-210>213-226-227-235-311000-
SOUTHEAST TEXAS
  
CITY           SKY/WX    TMP DP  RH WIND       PRES   REMARKS
COLLEGE STN    CLEAR     78  76  93 S7        29.98S                  
*BRYAN         CLEAR     78  78 100 S7        30.00R                  
*CALDWELL      CLEAR     77  77 100 S7        30.01S                  
*CROCKETT      CLEAR     77  75  94 S5        30.01S                  
*BRENHAM       CLEAR     79  77  94 S3        29.99F                  
HUNTSVILLE     PTCLDY    77  75  93 S6        29.99S                  
CONROE         CLEAR     74  73  97 CALM      29.99S                  
HOUSTON BUSH   CLOUDY    80  76  87 S5        29.99R                  
HOUSTON HOBBY  CLOUDY    80  76  87 CALM      29.98S                  
*HOUSTON SW AP CLOUDY    75  74  98 CALM      29.99S                  
PEARLAND       CLOUDY    81  76  84 CALM      30.00S                  
HOUSTON HOOKS  CLOUDY    79  76  90 S3        29.99S                  
ELLINGTON FLD  PTCLDY    82  77  83 SE2       29.98S HX  91           
SUGAR LAND     CLOUDY    78  75  90 S6        29.98S                  
*HOUSTON EXEC  CLOUDY    77  75  94 S7        30.00S                  
*CLEVELAND MUN CLOUDY    75  75 100 CALM      30.00S FOG              
*WHARTON       NOT AVBL                                               
*COLUMBUS      FAIR      77  77  98 CALM      29.99S                  
*EAGLE LAKE    SUNNY     78  77  97 S6        29.98F                  
$$

TXZ214>216-236>238-311000-
THE UPPER TEXAS COAST
  
CITY           SKY/WX    TMP DP  RH WIND       PRES   REMARKS
*ORANGE        PTCLDY    76  74  93 CALM      30.00F FOG              
PORT ARTHUR    PTCLDY    77  76  96 SW5       29.98F                  
GALVESTON      MOCLDY    84  79  85 S12       29.99S HX  96           
ANGLETON       CLOUDY    80  77  90 S6        29.99S                  
*BAY CITY      MOCLDY    79  77  94 S3        29.99S                  
PALACIOS       MOCLDY    84  76  76 S10       29.98F HX  93           
$$

TXZ229>234-239>247-311000-
TEXAS COASTAL BEND AND RIO GRANDE PLAINS
  
CITY           SKY/WX    TMP DP  RH WIND       PRES   REMARKS
VICTORIA       MOCLDY    75  74  96 SE5       29.98F                  
*BEEVILLE      MOCLDY    79  79 100 S7        29.98S                  
ROCKPORT       CLEAR     84  76  76 S7        29.97S HX  93           
*PORT ARANSAS  LGT RAIN  82  79  91 S9        29.97S HX  91           
*PORT LAVACA   MOCLDY    78  77  97 CALM      29.98S                  
*INGLESIDE     PTCLDY    85  78  81 S10       29.97S HX  96           
CORPUS CHRISTI MOCLDY    82  78  88 S10       29.97F HX  91           
CORPUS NAS       N/A    N/A N/A N/A MISG      29.97S                  
*ROBSTOWN      CLEAR     82  77  85 S8        29.97F                  
ALICE          CLEAR     77  75  93 S6        29.97F                  
KINGSVILLE NAS PTCLDY    78  78 100 SE7       29.97F                  
COTULLA        PTCLDY    79  73  82 SE9       29.96F                  
*FAITH RANCH     N/A    N/A N/A N/A MISG        N/A                   
LAREDO         PTCLDY    80  73  79 SE13      29.95F                  
$$

TXZ248>255-311000-
DEEP SOUTH TEXAS
  
CITY           SKY/WX    TMP DP  RH WIND       PRES   REMARKS
BROWNSVILLE    CLOUDY    81  76  84 S8        29.98S                  
PORT ISABEL    CLOUDY    82  76  81 S8        29.97S                  
*SOUTH PADRE     N/A     82  77  83 S8        29.98R HX  91           
HARLINGEN      CLOUDY    80  76  87 S10       29.96S                  
*HEBBRONVILLE  PTCLDY    76  73  90 SE5       29.99S                  
MCALLEN        CLEAR     82  74  76 SE9       29.96F                  
*WESLACO       CLOUDY    77  33  20 S8        29.96S                  
FALFURRIAS     CLEAR     78  74  88 E5        29.97S                  
EDINBURG       CLOUDY    82  74  78 S7        29.97S                  
*ZAPATA        CLOUDY    80  71  72 SE7       29.95S                  
$$

TXZ213>215-236>238-242>244-246-247-251-254-255-311000-
CMAN STATIONS
  
STATION/POSITION TIME  TEMP    WIND        PRES    WAVE
                       AIR SEA DIR/SP/G            HT/PER
                 (UTC) (F)     (DEG/KT/KT) (MB)    (FT/S)
SABINE PASS      0800   83 89  210/  2/  4 1017.2
SEA RIM ST PARK  0900   84     200/  9/ 11 1016.1
NORTH JETTY/GLS  0800   85 87                N/A
MORGANS POINT    0800   83 87  230/  4/  5 1015.5
MISSION/ARANSAS  0800   85                 1016.0
PORT ARANSAS     0900   83 88  190/ 13/ 14 1014.9
MALAQUITE BEACH  0800   84 85  160/ 14/ 16 1015.3
BAFFIN BAY       0800   83 87  160/ 13/ 16 1015.0
PORT ISABEL      0800   83 85  160/ 11/ 13 1015.1
$$

GMZ080-GMZ150>470-311000-
OFFSHORE BUOY REPORTS
  
STATION/POSITION TIME  TEMP    WIND        PRES    WAVE
                       AIR SEA DIR/SP/G            HT/PER
                 (UTC) (F)     (DEG/KT/KT) (MB)    (FT/S)
20 E GALVESTON   0850   85 87  210/ 12/ 14 1015.4    2/ 3
90 E PT ARANSAS  0850   85 86  160/ 14/ 16 1015.2    2/ 6
35 NE PT MANSFLD 0850   85 85  180/ 16/ 17 1014.4    3/ 5
200 E PT ISABEL  0850   86 87  150/  8/ 10 1015.1    2/ 5
$$
  

Return to Home page


Western Regional Climate Center, wrcc@dri.edu